KENT RIDGE 1 (41167 NORAD) Tracking and Keplerian Element Data

This shows tracking and keplerian element data for the satellite.

Feedback or suggestion? Click here.




ElementValue
Catalog41167
NameKENT RIDGE 1
Epoch Orbit50528
Epoch Day35.09965991
Epoch Year2025
RAAN358.1205
Inclination14.9817
Eccentricity0.0009078
Argument of Perigee73.1599
Mean Anonmoly286.9717
Mean Motion15.18491101
Decay Rate6.965E-05
L11 41167U 15077B 25035.09965991 .00006965 00000+0 29306-3 0 9990
L22 41167 14.9817 358.1205 0009078 73.1599 286.9717 15.18491101505284



Live tracking and technical data element details for KENT RIDGE 1 (NORAD 41167). KENT RIDGE 1 can be tracked NOW for your location showing map with azimuth and elevation plus other details from your city location.







IsCatalogInMostPopularTable: catalog: 41167, numindb: 552
Update: records affected: 1



GetName: 41167 KENT RIDGE 1

Hit Count: updated at: Sat, 24 May 2025 16:02:12 GMT